Weather History for Waukesha, WI

Change the Weather History Date:

Saturday, July 6, 2013

  Actual Average Record
Temperature  
Mean Temperature 70 °F -  
Max Temperature 80 °F 81 °F 100 °F (2012)
Min Temperature 60 °F 59 °F 44 °F (1965)
Cooling Degree Days 5    
Growing Degree Days 20 (Base 50)    
Moisture  
Dew Point 61 °F    
Average Humidity 77    
Maximum Humidity 94    
Minimum Humidity 42    
Precipitation  
Precipitation 0.00 in - - ()
Sea Level Pressure  
Sea Level Pressure 30.04 in    
Wind  
Wind Speed 4 mph (South)    
Max Wind Speed 9 mph    
Max Gust Speed -    
Visibility 9 miles    
Events      
Averages and records for this station are not official NWS values.
T = Trace of Precipitation, MM = Missing Value Source: NWS Daily Summary

Daily Weather History Graph

Daily Weather History Graph

Search for Another Location

Airport:

Trip Planner

Search our weather history database for the weather conditions in past years. The results will help you decide how hot, cold, wet, or windy it might be!

Date:

Astronomy

Jul. 06, 2013 Rise Set
Actual Time 5:20 AM CDT 8:34 PM CDT
Civil Twilight 4:45 AM CDT 9:09 PM CDT
Nautical Twilight 4:00 AM CDT 9:54 PM CDT
Astronomical Twilight 3:05 AM CDT 10:49 PM CDT
Moon 4:07 AM CDT (7/6) 7:14 PM CDT (7/6)
Length of Visible Light 16h 23m
Length of Day
15h 14m
Waning Crescent, 2% of the Moon is Illuminated
Jul 6
Waning Crescent
Jul 8
New
Jul 15
First Quarter
Jul 22
Full
Jul 29
Last Quarter

Hourly Weather History & Observations

Time (CDT) Temp. Heat Index Dew Point Humidity Pressure Visibility Wind Dir Wind Speed Gust Speed Precip Events Conditions
12:15 AM 66.2 °F - 60.8 °F 83% 30.06 in 10.0 mi South 3.5 mph - N/A   Clear
12:35 AM 66.2 °F - 60.8 °F 83% 30.06 in 10.0 mi South 4.6 mph - N/A   Clear
12:55 AM 64.4 °F - 60.8 °F 88% 30.06 in 7.0 mi SSW 3.5 mph - N/A   Clear
1:15 AM 64.4 °F - 60.8 °F 88% 30.06 in 7.0 mi SSW 4.6 mph - N/A   Clear
1:35 AM 64.4 °F - 60.8 °F 88% 30.06 in 7.0 mi South 5.8 mph - N/A   Clear
1:55 AM 64.4 °F - 60.8 °F 88% 30.06 in 10.0 mi South 3.5 mph - N/A   Clear
2:15 AM 62.6 °F - 59.0 °F 88% 30.06 in 7.0 mi Calm Calm - N/A   Clear
2:35 AM 60.8 °F - 59.0 °F 94% 30.06 in 7.0 mi Calm Calm - N/A   Clear
2:55 AM 60.8 °F - 59.0 °F 94% 30.06 in 7.0 mi South 3.5 mph - N/A   Clear
3:15 AM 62.6 °F - 59.0 °F 88% 30.06 in 7.0 mi South 6.9 mph - N/A   Clear
3:35 AM 62.6 °F - 60.8 °F 94% 30.06 in 7.0 mi South 5.8 mph - N/A   Clear
3:55 AM 62.6 °F - 59.0 °F 88% 30.06 in 7.0 mi South 3.5 mph - N/A   Clear
4:15 AM 62.6 °F - 59.0 °F 88% 30.06 in 7.0 mi South 5.8 mph - N/A   Clear
4:35 AM 62.6 °F - 59.0 °F 88% 30.07 in 7.0 mi SSW 3.5 mph - N/A   Clear
4:55 AM 62.6 °F - 59.0 °F 88% 30.07 in 5.0 mi SW 3.5 mph - N/A   Clear
5:15 AM 60.8 °F - 59.0 °F 94% 30.07 in 5.0 mi Calm Calm - N/A   Clear
5:35 AM 60.8 °F - 59.0 °F 94% 30.07 in 5.0 mi SSW 3.5 mph - N/A   Clear
5:45 AM 64.4 °F - 60.8 °F 88% 30.08 in 10.0 mi Calm Calm - N/A   Clear
6:45 AM 64.4 °F - 60.8 °F 88% 30.08 in 10.0 mi Calm Calm - N/A   Clear
7:45 AM 69.8 °F - 62.6 °F 78% 30.07 in 10.0 mi SSW 5.8 mph - N/A   Clear
8:45 AM 73.4 °F - 62.6 °F 69% 30.08 in 10.0 mi WSW 6.9 mph - N/A   Clear
9:45 AM 75.2 °F - 62.6 °F 65% 30.07 in 10.0 mi WSW 6.9 mph - N/A   Clear
10:45 AM 77.0 °F - 60.8 °F 57% 30.07 in 10.0 mi SSW 5.8 mph - N/A   Clear
11:45 AM 78.8 °F - 60.8 °F 54% 30.06 in 10.0 mi South 6.9 mph - N/A   Partly Cloudy
12:45 PM 80.6 °F 81.1 °F 59.0 °F 48% 30.05 in 10.0 mi South 4.6 mph - N/A   Partly Cloudy
1:45 PM 80.6 °F 80.5 °F 55.4 °F 42% 30.04 in 10.0 mi South 4.6 mph - N/A   Partly Cloudy
2:45 PM 80.6 °F 81.1 °F 59.0 °F 48% 30.03 in 10.0 mi SE 4.6 mph - N/A   Scattered Clouds
3:45 PM 80.6 °F 80.8 °F 57.2 °F 45% 30.03 in 10.0 mi SSE 9.2 mph - N/A   Scattered Clouds
4:45 PM 80.6 °F 80.8 °F 57.2 °F 45% 30.01 in 10.0 mi South 6.9 mph - N/A   Scattered Clouds
5:45 PM 80.6 °F 80.5 °F 55.4 °F 42% 30.00 in 10.0 mi South 6.9 mph - N/A   Partly Cloudy
6:45 PM 78.8 °F - 64.4 °F 61% 29.99 in 10.0 mi South 6.9 mph - N/A   Partly Cloudy
7:45 PM 75.2 °F - 66.2 °F 73% 29.99 in 10.0 mi South 9.2 mph - N/A   Scattered Clouds
8:45 PM 73.4 °F - 64.4 °F 73% 30.00 in 10.0 mi SSE 5.8 mph - N/A   Mostly Cloudy
9:15 PM 71.6 °F - 64.4 °F 78% 30.00 in 10.0 mi South 3.5 mph - N/A   Clear
9:35 PM 71.6 °F - 64.4 °F 78% 30.01 in 10.0 mi South 3.5 mph - N/A   Clear
9:55 PM 71.6 °F - 64.4 °F 78% 30.02 in 10.0 mi SSE 5.8 mph - N/A   Clear
10:15 PM 71.6 °F - 64.4 °F 78% 30.01 in 10.0 mi South 4.6 mph - N/A   Clear
10:35 PM 69.8 °F - 64.4 °F 83% 30.02 in 10.0 mi South 3.5 mph - N/A   Clear
10:55 PM 69.8 °F - 64.4 °F 83% 30.02 in 7.0 mi South 5.8 mph - N/A   Clear
11:15 PM 69.8 °F - 64.4 °F 83% 30.02 in 7.0 mi SSE 5.8 mph - N/A   Clear
11:35 PM 69.8 °F - 64.4 °F 83% 30.02 in 7.0 mi South 4.6 mph - N/A   Clear
11:55 PM 69.8 °F - 64.4 °F 83% 30.02 in 10.0 mi SSW 5.8 mph - N/A   Clear